Location: Fiennes
(50.8274°N, 1.8253°E)
Time: 03:20:41
(UTC+00:00)

Cosmos 1975 - Pass Details

Date: 15 May 2026
Orbit: 471 x 485 km, 82.5° (Epoch: 8 June)

Event Time Altitude Azimuth Distance (km) Brightness Sun altitude
Rises 21:52:34 0° 1° (N) 2,575 7.3 -15.6°
Reaches altitude 10° 21:55:09 10° 20° (NNE) 1,688 5.9 -15.8°
Maximum altitude 21:57:52 19° 67° (ENE) 1,214 4.5 -16.0°
Enters shadow 21:59:09 16° 95° (E) 1,332 4.5 -16.1°
